軌道要素
Epoch 2020 Sept. 28.0 TT = JDT 2459120.5
T 2020 Sept. 14.51804 TT Rudenko
q 0.4745873 (2000.0) P Q
z -0.0004574 Peri. 260.06146 +0.15027869 -0.98854739
+/-0.0000034 Node 181.51688 +0.97939020 +0.14695267
e 1.0002171 Incl. 31.41370 -0.13494870 -0.03433604
From 295 observations 2020 May 25-2021 Apr. 6, mean residual 0".9.
|